Location: ???? ????
(41.4149°N, 22.8816°E)
Time: 14:32:10
(UTC+00:00)

Cosmos 1842 - Pass Details

Date: 14 July 2020
Orbit: 523 x 536 km, 82.5° (Epoch: 03 August)

Event Time Altitude Azimuth Distance (km) Brightness Sun altitude
Rises 02:19:04 0° 348° (NNW) 2,692 7.2 -8.3°
Reaches altitude 10° 02:21:15 10° 344° (NNW) 1,798 6.3 -8.0°
Maximum altitude 02:25:08 59° 266° (W) 626 3.3 -7.4°
Drops below altitude 10° 02:29:00 10° 186° (S) 1,785 5.5 -6.8°
Sets 02:31:09 0° 183° (S) 2,671 6.4 -6.5°
